Regional Weather Roundup
Issued by NWS Northern Indiana

Home | Current Version | Previous Version | Graphics & Text | Print | Product List | Glossary On
Versions: 1 2 3 4 5 6 7 8 9 10 11 12 13 14 15 16 17 18 19 20 21 22 23 24 25 26 27 28 29 30 31 32 33 34 35 36 37 38 39 40 41 42 43 44 45 46 47 48 49 50
000
ASUS43 KIWX 010400
RWRIWX

KIWX WEATHER ROUNDUP
NATIONAL WEATHER SERVICE NORTHERN INDIANA
1200 AM EDT WED OCT 01 2014

NOTE: "FAIR" INDICATES FEW OR NO CLOUDS BELOW 12,000 FEET WITH NO
SIGNIFICANT WEATHER AND/OR OBSTRUCTIONS TO VISIBILITY.

* THESE STATIONS ARE NOT UNDER NWS QUALITY CONTROL. THEY ALSO MAY NOT
  REPORT WEATHER SUCH AS PRECIPITATION OR FOG.

INZ001>027-010500-
NORTHERN INDIANA

CITY           SKY/WX    TMP DP  RH WIND       PRES   REMARKS
KNOX*          CLOUDY    48  45  90 CALM      30.02S
SOUTH BEND     NOT AVBL
WARSAW*        CLOUDY    54  46  76 E5        30.02F
ANGOLA*        CLOUDY    54  46  76 E6        30.03S
FORT WAYNE     CLOUDY    55  48  77 NE3       30.02S
PERU/GRISSOM   PTCLDY    46  46 100 NE5       30.02S

$$
INZ028>050-010500-
CENTRAL INDIANA

CITY           SKY/WX    TMP DP  RH WIND       PRES   REMARKS
LAFAYETTE      CLEAR     49  46  90 NE6       30.01S
KOKOMO*        CLEAR     46  43  87 CALM      30.02S
MUNCIE*        PTCLDY    45  44  97 CALM      30.01R
INDIANAPOLIS   PTCLDY    54  47  77 NE9       29.99R

$$
MIZ043>046-050>051-056>058-064>065-071>073-077>080-010500-
SOUTHWEST LOWER MICHIGAN

CITY           SKY/WX    TMP DP  RH WIND       PRES   REMARKS
BATTLE CREEK   CLOUDY    54  47  77 E7        30.04S
COLDWATER*     CLOUDY    55  50  84 E5        30.03R
HILLSDALE*     CLOUDY    53  50  92 NE3       30.03S
GRAND RAPIDS   CLOUDY    53  51  93 E7        30.05R
KALAMAZOO      CLOUDY    55  49  80 CALM      30.05R
STURGIS*       CLOUDY    54  50  87 E3        30.02F
THREE RIVERS*  CLOUDY    55  50  84 NE3       30.03F

$$
OHZ001>008-015>018-024>025-010500-
NORTHWEST OHIO

CITY           SKY/WX    TMP DP  RH WIND       PRES   REMARKS
DEFIANCE       PTCLDY    52  48  86 CALM      30.02R
FINDLAY        MOCLDY    55  51  86 N8        30.00R
TOLEDO EXPRESS CLEAR     50  48  93 N5        30.02R
TOLEDO METCALF CLEAR     52  48  86 N8        30.02S
LIMA           CLEAR     50  46  86 CALM      30.01R

$$
AND FOR LAKE MICHIGAN COASTAL AND OPEN LAKE BUOY OBSERVATIONS

STATION/POSITION TEMP    WIND        PRES    VSBY  WAVE
                 AIR SEA DIR/SP/G                  HT/PER
                 (F)     (DEG/KT/KT) (MB)    (MI)  (FT/S)
CALUMET HARBOR            50/ 10/ 14 1015.6S
MICHIGAN CITY     53      70/  5/  6   N/A
SAINT JOSEPH      54        CALM     1018.3R
SOUTH LAKE BUOY   56 61   60/  8/ 10 1017.4R         3/ 6
4 MI NW BRIDGMAN  56 62  110/  6/  8   N/A           2/ 2
MICHIGAN CITY     55 64  130/  6/ 10   N/A           3/ 2

$$
&&


USA.gov is the U.S. government's official web portal to all federal, state and local government web resources and services.